CAPE
0 0 0 0 0 0 0 0 0 0 0 0 0 0 0 0 0 0 0 0 0 0 0 0 0 0 0 0 0 0 0 3 5 6 8 15 24 23
0 0 0 0 0 0 0 0 0 0 0 0 0 0 0 0 0 0 0 0 0 0 0 0 0 0 0 0 0 0 0 0 1 2 4 8 12 16
0 0 0 0 0 0 0 0 0 0 0 0 0 0 0 0 0 0 0 0 0 0 0 0 0 0 0 0 0 0 0 0 0 1 5 9 14 11
0 0 0 0 0 0 0 0 0 0 0 0 0 0 0 0 0 0 6 2 0 0 0 0 0 0 0 0 0 0 0 0 0 1 4 6 11 11
0 0 0 1 0 0 1 0 0 1 0 0 0 0 0 1 2 4 9 7 1 0 0 0 0 0 0 0 0 0 0 0 0 0 0 0 1 5
0 3 2 1 0 0 0 0 0 0 0 0 0 0 0 0 22 21 3 0 0 0 0 0 0 0 0 1 0 0 0 0 0 0 0 0 0 0
0 2 4 7 7 1 0 0 0 0 0 0 0 0 0 0 0 1 2 0 0 0 0 0 0 0 0 1 0 5 7 12 7 0 0 0 0 1
0 0 0 0 0 0 0 3 2 3 2 4 0 0 0 0 0 0 0 2 0 0 0 0 0 0 0 0 0 0 0 0 0 0 0 0 0 0
0 0 0 0 0 0 0 0 0 0 0 1 1 0 0 0 0 0 0 0 0 0 0 0 0 0 0 0 6 1 2 6 0 0 0 0 0 0
0 0 0 0 0 0 0 0 0 0 0 0 0 0 0 0 0 0 0 0 0 0 0 0 0 0 0 1 0 0 0 9 6 0 0 0 0 0
0 0 0 0 0 0 0 0 0 0 0 0 3 2 7 8 1 0 0 0 0 0 0 0 0 0 0 0 0 0 7 2 3 0 3 0 0 0
0 0 0 0 0 0 0 0 0 0 0 0 0 0 0 0 0 0 0 0 0 0 0 0 0 0 0 0 0 0 0 1 5 2 3 0 1 0
0 0 0 0 0 0 0 0 0 0 0 0 0 0 0 5 0 0 0 0 0 0 0 0 0 0 0 0 0 0 0 0 0 0 0 0 0 4
0 0 0 0 0 0 0 0 0 0 0 1 0 0 1 4 19 0 0 0 0 0 0 0 0 0 0 0 0 0 0 0 0 0 0 0 0 3
0 0 0 0 0 0 4 0 0 0 0 0 0 0 0 4 2 0 0 0 0 0 0 0 0 0 0 0 0 0 0 0 0 0 0 0 0 0
0 0 0 0 0 0 0 0 0 1 0 0 0 0 0 6 0 0 0 0 0 0 0 0 0 0 0 0 0 0 0 0 0 0 0 0 0 0
0 0 0 0 0 0 0 0 0 0 0 0 0 1 0 1 0 0 0 0 0 0 0 0 0 0 0 0 0 0 0 0 0 7 0 0 0 0
0 0 0 0 0 0 0 0 0 0 0 1 1 0 0 2 0 0 0 0 0 0 0 0 0 2 0 0 0 0 0 0 0 0 0 0 0 0
0 0 0 0 0 0 0 0 1 0 0 0 0 1 0 0 0 1 0 0 0 0 0 0 0 0 0 0 0 1 0 0 0 0 0 0 0 0
0 0 0 0 0 0 0 0 0 0 0 0 0 0 0 0 0 0 0 0 0 0 0 0 0 0 0 0 0 0 0 0 0 0 0 0 0 0
0 0 0 0 0 0 0 1 1 0 0 0 0 0 0 1 0 0 0 0 0 0 0 0 0 0 0 0 0 0 0 0 0 0 0 0 0 0
0 0 0 0 0 0 0 0 0 0 0 0 0 0 0 0 0 0 0 0 0 0 0 0 0 0 0 0 0 0 0 0 0 0 0 0 0 0
0 0 0 0 0 0 0 0 0 0 0 0 0 0 0 0 1 0 0 0 0 0 0 0 0 0 0 0 0 0 0 0 1 0 0 0 0 0
CIN
0 0 0 0 0 0 0 0 0 0 0 0 0 0 0 0 0 0 0 0 0 0 0 0 0 0 0 0 0 0 -1 -1 -1 -1 -1 -2 -2 -2
0 0 0 0 0 0 0 0 0 0 0 0 0 0 0 0 0 0 0 0 0 0 0 0 0 0 0 0 0 0 0 -1 -1 -1 -1 -1 -2 -2
0 0 0 0 0 0 0 0 0 0 0 0 0 0 0 0 0 0 0 0 0 0 0 0 0 0 0 0 0 0 0 0 0 -1 -1 -2 -1 -2
0 0 0 0 0 0 0 0 0 0 0 0 0 0 0 0 0 0 -12 -17 0 0 0 0 0 0 0 0 0 0 0 0 0 -1 -1 -1 -1 -2
0 0 0 -2 0 0 -5 -1 0 -4 -2 0 0 0 0 -6 -8 -9 -10 -17 -7 0 0 0 0 0 0 0 0 0 0 0 0 0 0 0 0 -1
0 -2 -5 -6 -3 0 0 0 0 0 0 -1 0 0 0 0 -6 -4 -12 0 0 0 0 0 0 0 0 -9 0 0 -1 -13 0 0 0 0 0 0
0 -3 -3 -4 -3 -6 -3 0 0 0 0 0 0 0 0 0 0 -23 -21 0 0 0 0 0 0 0 -3 -2 0 -3 -12 -13 -15 -1 0 0 0 -1
0 0 0 0 0 0 0 -11 -12 -11 -13 -12 -1 -1 0 0 0 0 0 -29 0 0 0 0 0 0 0 0 -2 -1 0 0 0 0 0 0 0 0
0 0 0 0 0 0 0 0 0 0 0 -37 -28 0 0 0 0 0 0 0 0 0 0 0 0 0 0 -1 -1 -6 -14 -7 -2 0 0 0 0 0
0 0 0 0 0 0 0 0 0 0 0 0 0 0 0 0 0 0 0 0 0 0 0 0 0 0 0 -3 0 0 0 -5 -3 -2 0 0 0 0
0 0 0 0 0 0 0 0 0 0 0 0 -2 -9 -1 -5 -10 0 0 0 0 0 0 0 0 0 0 0 0 0 -4 -6 -5 -2 -7 0 0 0
0 0 0 0 0 0 0 0 0 0 0 0 0 0 0 0 0 0 0 0 0 0 0 0 0 0 0 0 0 0 0 -4 -4 -4 -7 0 -5 -1
0 0 0 0 0 0 0 0 0 0 0 0 0 0 0 -1 0 0 0 0 0 0 0 0 0 0 0 0 0 0 0 0 0 0 0 0 0 -3
0 0 0 0 0 0 0 0 0 0 0 0 0 0 -1 -1 -1 0 0 0 0 0 0 0 0 0 0 0 0 0 0 0 0 0 0 0 -2 -3
0 0 0 0 0 0 0 0 -1 -1 0 0 0 0 0 -2 -3 0 0 0 0 0 0 0 0 0 0 0 0 0 0 0 0 0 0 0 0 0
0 0 0 0 0 0 0 0 0 -1 0 0 0 0 0 -1 -1 0 0 0 0 0 0 0 0 0 0 0 0 0 0 0 0 0 0 0 0 0
0 0 0 -1 0 0 0 0 0 0 0 0 -1 -4 -1 -2 0 0 0 0 0 0 0 0 0 0 0 0 0 0 0 0 0 -2 0 0 0 0
0 0 0 0 0 0 0 0 0 0 -1 0 0 -1 0 -1 0 0 0 0 0 0 0 0 0 -3 0 0 0 0 0 0 -2 0 0 0 0 0
0 0 0 0 0 0 0 0 -1 -1 0 0 0 0 0 0 0 -2 -2 0 0 0 0 0 0 -1 0 0 -1 -20 -1 0 0 0 0 0 0 0
0 0 0 0 0 0 0 0 -3 -2 0 0 0 0 0 0 0 -3 -2 0 0 0 0 0 0 0 0 0 0 0 0 0 0 0 0 0 0 0
0 0 0 0 0 0 -6 -4 -4 -5 0 0 0 0 0 0 0 0 0 0 0 0 0 0 0 0 0 0 0 0 0 0 0 0 0 0 0 0
0 0 0 0 0 0 0 -5 -5 0 0 0 0 0 0 0 0 0 0 -2 0 0 0 0 0 0 0 0 0 0 0 0 0 0 0 0 0 0
0 0 0 0 0 0 -2 0 0 -5 0 0 0 0 0 0 0 0 0 0 0 0 0 0 0 0 0 0 0 0 0 0 -14 0 0 0 0 0
Wind_Speed
18 22 22 23 23 23 24 28 33 39 38 34 34 29 28 25 23 24 26 27 25 26 29 31 34 33 33 34 35 35 34 33 34 36 39 41 43 43
20 24 25 25 24 24 26 27 28 32 39 33 32 30 30 30 29 28 27 25 27 30 30 31 31 30 31 32 34 34 33 32 33 35 37 38 40 42
22 26 26 25 26 27 28 27 29 31 37 36 32 31 31 32 31 28 26 27 29 29 29 30 31 29 29 29 31 31 30 29 31 33 34 34 37 39
22 23 23 24 26 26 26 27 29 29 33 38 36 35 34 33 33 32 31 30 29 27 29 30 28 27 26 25 27 26 26 27 30 31 30 34 36 38
21 22 24 25 27 27 27 29 30 31 33 36 40 37 37 34 37 35 33 30 26 27 26 26 26 26 25 24 23 22 21 22 25 28 27 30 33 35
22 23 25 26 27 28 30 30 31 34 34 36 38 39 39 38 36 36 35 29 30 29 25 28 28 29 26 21 21 20 18 20 22 23 24 27 30 34
23 25 25 25 27 28 30 32 34 36 37 38 40 39 39 38 37 35 34 32 28 26 28 26 27 27 26 27 30 30 25 21 22 25 27 30 33 37
29 29 30 32 33 34 34 33 33 37 39 39 41 40 40 38 36 35 34 34 34 26 27 26 24 28 30 31 28 25 24 21 21 24 25 28 32 34
29 31 32 32 34 37 39 40 38 37 37 39 41 40 40 37 34 33 31 30 29 27 25 27 26 27 30 26 27 29 25 24 21 21 22 29 32 35
31 34 36 37 38 41 44 45 45 43 41 39 38 38 37 34 31 30 28 25 24 21 22 27 27 25 24 24 25 30 30 30 26 17 22 30 35 37
33 35 37 39 40 43 46 48 48 47 42 41 39 39 36 31 28 24 22 23 24 22 20 23 23 22 24 27 26 29 25 28 26 18 21 32 35 37
35 36 37 38 41 44 46 47 49 47 45 43 41 39 35 31 27 22 19 20 21 25 20 20 19 25 27 23 23 29 33 33 31 29 32 34 35 34
38 39 39 41 44 46 45 44 44 44 42 40 37 35 32 27 21 17 18 17 19 20 19 16 19 22 24 30 28 31 33 34 31 29 29 30 33 33
40 41 42 44 46 46 45 43 43 40 37 34 33 31 28 24 18 13 12 11 11 10 13 14 18 19 21 28 33 29 31 34 33 24 26 28 30 31
39 41 44 44 44 44 43 45 43 40 35 31 29 26 24 20 14 11 10 9 9 9 13 13 15 18 20 22 26 29 34 31 28 24 27 29 29 30
40 41 42 42 40 44 44 43 41 40 39 33 26 25 23 17 9 8 8 8 11 12 12 15 16 17 17 15 17 25 27 28 28 26 28 26 28 27
41 41 42 41 44 44 44 42 41 39 38 39 29 24 20 14 6 6 7 10 11 13 14 15 13 11 10 10 12 11 18 24 24 25 25 29 28 26
40 41 41 42 43 44 43 43 41 39 37 37 38 26 18 13 9 8 8 11 11 13 14 14 20 18 15 11 5 4 14 17 22 25 27 28 28 26
37 39 40 41 43 41 42 42 41 38 37 34 33 33 19 15 13 13 12 11 12 13 13 13 20 20 20 23 22 15 16 21 25 28 22 27 28 29
37 39 41 42 41 41 41 40 39 37 36 35 33 31 28 20 20 20 17 14 14 14 13 14 18 16 13 20 19 19 13 16 13 14 23 26 27 4
38 39 38 40 40 40 39 38 37 36 35 34 32 33 33 31 21 21 20 13 12 12 12 14 19 15 13 16 22 27 23 5 5 8 15 22 24 19
37 40 39 39 39 38 37 36 35 34 34 33 33 33 32 32 31 30 23 17 12 14 15 18 14 13 16 18 21 25 24 17 9 5 5 8 16 19
39 39 38 38 38 37 36 34 34 33 33 33 33 34 33 32 33 32 28 13 15 16 15 17 21 14 14 16 21 23 24 23 21 19 9 5 6 5
Wind_Direction
312 314 318 317 316 318 321 320 320 319 320 323 322 325 324 322 318 314 313 314 316 318 319 320 322 321 321 322 321 320 319 317 315 311 306 302 297 294
313 312 314 315 314 318 319 319 318 317 317 322 323 324 324 322 318 315 313 314 315 315 316 319 319 318 318 319 320 320 318 316 315 312 309 305 301 295
314 314 313 313 315 318 318 319 318 319 317 320 321 322 320 320 320 318 314 312 313 315 317 319 320 316 315 318 320 322 321 320 317 314 312 310 304 298
314 315 314 315 315 316 316 315 316 317 316 316 318 317 315 316 314 314 313 311 312 315 318 319 319 316 316 318 320 322 322 322 321 318 316 311 304 297
318 318 317 318 318 319 319 318 317 317 317 316 316 319 319 319 317 315 313 312 314 314 314 316 320 319 317 314 315 319 320 322 323 323 323 316 306 296
320 319 320 319 319 319 318 317 317 316 316 317 317 318 319 320 318 316 315 316 317 320 318 321 322 322 319 314 315 315 312 317 322 323 323 319 311 297
324 323 322 320 318 318 317 315 314 313 312 312 311 313 315 317 318 320 319 315 314 317 316 319 321 324 324 322 320 319 324 324 323 323 322 316 306 293
327 326 326 324 323 321 319 314 310 311 310 310 311 311 312 313 314 316 317 315 312 315 313 316 321 321 320 318 317 322 327 329 327 323 322 317 308 300
328 327 327 327 326 325 325 325 323 318 313 310 307 307 308 309 312 311 313 315 313 316 319 317 320 318 318 317 316 318 324 326 326 326 319 314 308 302
331 330 328 328 328 327 325 322 321 320 319 316 311 306 304 303 302 303 307 309 317 317 319 316 322 318 318 318 318 316 319 321 326 327 322 310 300 296
331 330 330 329 329 328 326 323 322 320 320 318 317 316 309 299 295 299 303 306 309 313 318 320 321 319 317 315 317 319 325 324 328 335 325 305 297 292
331 330 330 329 330 329 328 325 322 321 322 321 319 317 313 307 303 274 287 294 305 314 317 318 322 321 315 317 321 316 313 315 321 325 316 300 293 300
330 330 331 331 330 329 328 326 323 323 322 322 321 321 318 312 298 286 285 289 300 302 321 323 323 319 314 308 316 315 310 312 321 328 322 304 294 301
331 331 331 331 330 330 330 329 328 326 325 324 325 324 322 318 305 282 281 287 299 301 323 326 324 320 317 311 308 317 313 309 317 335 326 311 304 305
332 331 331 331 332 333 334 334 334 335 328 324 324 324 327 321 312 292 284 285 292 305 315 315 317 317 316 317 316 315 304 318 327 332 320 312 310 310
332 332 332 332 334 335 336 336 336 335 335 329 321 325 327 324 301 287 280 292 306 313 316 317 317 317 317 322 327 320 319 321 326 327 319 317 313 317
331 332 333 334 334 336 337 338 337 337 335 335 331 327 325 320 305 302 294 301 302 313 317 320 319 316 314 321 329 336 334 329 333 331 325 312 308 320
331 331 332 334 334 335 336 337 338 336 335 333 333 334 326 315 299 303 304 304 304 311 315 321 316 315 319 321 234 306 338 340 338 331 319 310 308 322
330 332 332 333 333 335 336 336 335 336 333 332 332 332 336 328 323 314 310 303 304 307 309 317 312 307 309 308 318 337 338 333 330 322 335 311 309 314
333 332 332 333 334 334 335 335 335 335 333 329 328 330 320 316 311 309 309 305 306 303 304 311 310 309 313 308 319 325 350 344 357 4 341 317 310 321
332 332 333 333 333 334 334 334 334 334 333 329 324 318 314 313 312 310 309 302 307 302 304 308 305 312 318 320 310 301 312 45 54 35 10 338 328 352
332 332 332 332 333 333 333 334 334 333 332 328 320 312 310 307 305 302 306 306 301 301 305 300 309 311 310 314 310 294 305 342 32 90 80 46 5 358
330 331 332 332 332 333 333 333 332 331 330 324 316 306 303 300 300 300 296 300 297 299 300 295 286 304 312 315 303 300 299 310 324 344 39 86 139 141